Weather History for Cullman, AL

Change the Weather History Date:

Monday, October 15, 2012

  Actual Average (KHSV) Record (KHSV)
Temperature  
Mean Temperature 60 °F 63 °F  
Max Temperature 72 °F 75 °F 88 °F (1947)
Min Temperature 46 °F 51 °F 34 °F (1978)
Degree Days  
Heating Degree Days 6 4  
Month to date heating degree days 43  
Since 1 July heating degree days 56  
Cooling Degree Days 0 2  
Month to date cooling degree days 48  
Year to date cooling degree days 1918  
Growing Degree Days 10 (Base 50)    
Moisture  
Dew Point 54 °F    
Average Humidity 78    
Maximum Humidity 99    
Minimum Humidity 37    
Precipitation  
Precipitation 0.00 in 0.11 in 2.10 in (1964)
Month to date precipitation 1.67  
Year to date precipitation 41.71  
Snow  
Snow 0.00 in - - ()
Month to date snowfall  
Since 1 July snowfall  
Since 1 September snowfall  
Snow Depth -    
Sea Level Pressure  
Sea Level Pressure 30.01 in    
Wind  
Wind Speed 2 mph (NNW)    
Max Wind Speed 9 mph    
Max Gust Speed -    
Visibility 9 miles    
Events Thunderstorm    
T = Trace of Precipitation, MM = Missing Value Source: NWS Daily Summary

Daily Weather History Graph

Daily Weather History Graph

Search for Another Location

Airport:

Trip Planner

Search our weather history database for the weather conditions in past years. The results will help you decide how hot, cold, wet, or windy it might be!

Date:

Astronomy

Oct. 15, 2012 Rise Set
Actual Time 6:53 AM CDT 6:12 PM CDT
Civil Twilight 6:27 AM CDT 6:37 PM CDT
Nautical Twilight 5:58 AM CDT 7:06 PM CDT
Astronomical Twilight 5:29 AM CDT 7:35 PM CDT
Moon 7:00 AM CDT (10/15) 6:15 PM CDT (10/15)
Length of Visible Light 12h 09m
Length of Day
11h 19m
New Moon, 0% of the Moon is Illuminated
Oct 15
New Moon
Oct 21
First Quarter
Oct 29
Full
Nov 6
Last Quarter
Nov 13
New

Hourly Weather History & Observations

Time (CDT) Temp. Dew Point Humidity Pressure Visibility Wind Dir Wind Speed Gust Speed Precip Events Conditions
12:15 AM 66.0 °F 64.2 °F 94% 29.98 in 10.0 mi Calm Calm - N/A   Mostly Cloudy
12:55 AM 65.3 °F 64.4 °F 97% 29.98 in 10.0 mi Calm Calm - N/A   Scattered Clouds
1:15 AM 64.8 °F 64.2 °F 98% 29.98 in 7.0 mi Calm Calm - N/A Thunderstorm Scattered Clouds
1:35 AM 64.9 °F 64.4 °F 98% 29.99 in 7.0 mi Calm Calm - N/A   Scattered Clouds
1:55 AM 65.3 °F 64.6 °F 98% 29.99 in 7.0 mi Calm Calm - N/A   Mostly Cloudy
2:15 AM 65.5 °F 64.6 °F 97% 29.98 in 10.0 mi Calm Calm - N/A   Overcast
2:55 AM 65.3 °F 64.4 °F 97% 29.98 in 7.0 mi Calm Calm - N/A   Overcast
3:15 AM 65.1 °F 64.4 °F 98% 29.97 in 5.0 mi Calm Calm - N/A   Overcast
3:35 AM 64.9 °F 64.2 °F 98% 29.97 in 5.0 mi Calm Calm - N/A   Overcast
3:55 AM 64.4 °F 63.5 °F 97% 29.97 in 7.0 mi NW 3.5 mph - N/A   Mostly Cloudy
4:15 AM 63.5 °F 62.8 °F 97% 29.97 in 5.0 mi NNW 3.5 mph - N/A   Mostly Cloudy
4:55 AM 63.5 °F 62.6 °F 97% 29.98 in 4.0 mi North 5.8 mph - N/A   Mostly Cloudy
5:15 AM 63.5 °F 62.8 °F 97% 29.99 in 4.0 mi NNW 5.8 mph - N/A   Overcast
5:55 AM 62.4 °F 61.5 °F 97% 29.99 in 7.0 mi North 4.6 mph - N/A   Overcast
6:15 AM 61.9 °F 61.2 °F 97% 30.00 in 7.0 mi Calm Calm - N/A   Overcast
6:35 AM 61.0 °F 60.1 °F 97% 30.00 in 7.0 mi Calm Calm - N/A   Mostly Cloudy
7:15 AM 60.1 °F 59.7 °F 99% 30.00 in 2.5 mi Calm Calm - N/A   Overcast
7:35 AM 59.9 °F 59.4 °F 98% 30.01 in 5.0 mi NNW 3.5 mph - N/A   Scattered Clouds
7:55 AM 61.2 °F 59.7 °F 95% 30.01 in 10.0 mi NNW 4.6 mph - N/A   Mostly Cloudy
8:15 AM 62.2 °F 59.7 °F 91% 30.02 in 10.0 mi NNW 5.8 mph - N/A   Overcast
8:35 AM 62.1 °F 59.4 °F 91% 30.03 in 10.0 mi NNW 4.6 mph - N/A   Overcast
8:55 AM 62.1 °F 58.6 °F 89% 30.04 in 10.0 mi NNW 4.6 mph - N/A   Mostly Cloudy
9:15 AM 63.0 °F 58.1 °F 84% 30.04 in 10.0 mi North 3.5 mph - N/A   Scattered Clouds
9:35 AM 63.3 °F 58.3 °F 84% 30.05 in 10.0 mi NW 5.8 mph - N/A   Scattered Clouds
9:55 AM 63.9 °F 57.9 °F 81% 30.04 in 10.0 mi NW 4.6 mph - N/A   Scattered Clouds
10:15 AM 65.5 °F 58.1 °F 77% 30.05 in 10.0 mi NW 6.9 mph - N/A   Scattered Clouds
10:35 AM 66.2 °F 57.7 °F 74% 30.05 in 10.0 mi NW 4.6 mph - N/A   Scattered Clouds
10:55 AM 67.1 °F 57.7 °F 72% 30.05 in 10.0 mi NW 4.6 mph - N/A   Scattered Clouds
11:15 AM 67.6 °F 57.0 °F 69% 30.05 in 10.0 mi NNW 3.5 mph - N/A   Scattered Clouds
11:55 AM 69.1 °F 54.7 °F 60% 30.04 in 10.0 mi North 4.6 mph - N/A   Scattered Clouds
12:15 PM 69.8 °F 54.1 °F 57% 30.04 in 10.0 mi NW 4.6 mph - N/A   Clear
12:35 PM 70.5 °F 52.5 °F 53% 30.04 in 10.0 mi North 3.5 mph - N/A   Clear
1:15 PM 71.1 °F 50.7 °F 49% 30.02 in 10.0 mi North 9.2 mph - N/A   Clear
1:35 PM 71.4 °F 49.5 °F 46% 30.01 in 10.0 mi NW 6.9 mph - N/A   Clear
1:55 PM 71.6 °F 47.3 °F 42% 30.01 in 10.0 mi WNW 3.5 mph - N/A   Clear
2:15 PM 72.0 °F 46.8 °F 41% 30.00 in 10.0 mi NNW 5.8 mph - N/A   Clear
2:35 PM 72.0 °F 46.0 °F 40% 30.00 in 10.0 mi NW 8.1 mph - N/A   Clear
2:55 PM 72.0 °F 45.3 °F 38% 29.99 in 10.0 mi NNW 5.8 mph - N/A   Clear
3:15 PM 71.8 °F 45.3 °F 39% 29.99 in 10.0 mi WNW 6.9 mph - N/A   Clear
3:35 PM 72.1 °F 45.0 °F 38% 30.00 in 10.0 mi NW 9.2 mph - N/A   Clear
3:55 PM 72.0 °F 44.6 °F 37% 30.00 in 10.0 mi NNW 9.2 mph - N/A   Clear
4:15 PM 71.4 °F 44.4 °F 38% 29.99 in 10.0 mi NW 9.2 mph - N/A   Clear
4:35 PM 71.1 °F 45.3 °F 40% 30.00 in 10.0 mi NNW 9.2 mph - N/A   Clear
4:55 PM 70.5 °F 44.8 °F 40% 30.00 in 10.0 mi NNW 5.8 mph - N/A   Clear
5:15 PM 69.6 °F 45.3 °F 42% 30.00 in 10.0 mi Calm Calm - N/A   Clear
5:35 PM 68.9 °F 46.4 °F 44% 29.99 in 10.0 mi Calm Calm - N/A   Clear
5:55 PM 66.7 °F 47.7 °F 50% 29.99 in 10.0 mi Calm Calm - N/A   Clear
6:15 PM 62.8 °F 48.4 °F 59% 29.99 in 10.0 mi Calm Calm - N/A   Clear
6:35 PM 58.6 °F 50.0 °F 73% 29.99 in 10.0 mi Calm Calm - N/A   Clear
6:55 PM 56.1 °F 49.6 °F 79% 29.99 in 10.0 mi Calm Calm - N/A   Clear
7:15 PM 54.5 °F 49.3 °F 83% 30.00 in 10.0 mi Calm Calm - N/A   Clear
7:35 PM 53.1 °F 49.3 °F 87% 30.00 in 10.0 mi Calm Calm - N/A   Clear
7:55 PM 52.9 °F 48.9 °F 86% 29.99 in 10.0 mi Calm Calm - N/A   Clear
8:15 PM 52.0 °F 48.6 °F 88% 30.00 in 10.0 mi Calm Calm - N/A   Clear
8:35 PM 50.9 °F 48.6 °F 92% 30.00 in 10.0 mi Calm Calm - N/A   Clear
8:55 PM 50.2 °F 48.4 °F 94% 30.00 in 10.0 mi Calm Calm - N/A   Clear
9:15 PM 49.6 °F 47.8 °F 94% 30.01 in 10.0 mi Calm Calm - N/A   Clear
9:35 PM 48.9 °F 47.7 °F 95% 30.01 in 10.0 mi Calm Calm - N/A   Clear
9:55 PM 48.9 °F 48.0 °F 97% 30.01 in 10.0 mi Calm Calm - N/A   Clear
10:15 PM 48.7 °F 47.7 °F 96% 30.01 in 10.0 mi Calm Calm - N/A   Clear
10:35 PM 48.2 °F 47.3 °F 97% 30.02 in 10.0 mi Calm Calm - N/A   Clear
11:15 PM 47.7 °F 46.6 °F 96% 30.01 in 10.0 mi Calm Calm - N/A   Clear
11:35 PM 47.1 °F 46.2 °F 97% 30.02 in 10.0 mi Calm Calm - N/A   Clear
11:55 PM 46.6 °F 45.9 °F 97% 30.02 in 10.0 mi Calm Calm - N/A   Clear